QPF
0.00 0.00 0.00 0.01 0.01 0.01 0.01 0.01 0.02 0.02 0.02 0.03 0.03 0.02 0.04 0.04 0.05 0.04 0.05 0.07 0.08 0.08 0.09 0.11 0.13 0.18 0.26 0.26 0.26 0.25 0.29 0.32 0.32 0.36 0.40 0.36 0.28 0.24 0.20 0.17 0.16 0.14 0.12 0.13
0.01 0.00 0.00 0.00 0.01 0.01 0.01 0.01 0.01 0.02 0.02 0.03 0.03 0.03 0.05 0.06 0.06 0.05 0.05 0.07 0.07 0.05 0.06 0.07 0.08 0.10 0.17 0.22 0.23 0.24 0.26 0.29 0.28 0.29 0.31 0.30 0.29 0.27 0.22 0.19 0.17 0.16 0.14 0.13
0.01 0.00 0.00 0.00 0.01 0.01 0.01 0.01 0.01 0.01 0.02 0.04 0.05 0.07 0.08 0.08 0.07 0.06 0.06 0.06 0.07 0.06 0.05 0.05 0.06 0.08 0.10 0.16 0.22 0.21 0.23 0.30 0.31 0.26 0.26 0.27 0.29 0.31 0.27 0.22 0.19 0.17 0.15 0.13
0.01 0.01 0.00 0.00 0.00 0.01 0.01 0.01 0.02 0.03 0.04 0.05 0.05 0.08 0.10 0.09 0.08 0.07 0.07 0.06 0.06 0.07 0.07 0.07 0.06 0.07 0.07 0.10 0.17 0.22 0.23 0.29 0.34 0.35 0.31 0.26 0.26 0.28 0.24 0.20 0.19 0.17 0.16 0.14
0.01 0.01 0.01 0.01 0.00 0.01 0.01 0.01 0.04 0.05 0.05 0.04 0.04 0.07 0.11 0.09 0.08 0.08 0.09 0.06 0.07 0.09 0.10 0.08 0.06 0.06 0.07 0.09 0.12 0.20 0.26 0.29 0.31 0.35 0.36 0.30 0.23 0.24 0.23 0.21 0.22 0.19 0.17 0.17
0.01 0.01 0.02 0.02 0.01 0.01 0.01 0.01 0.02 0.03 0.04 0.04 0.04 0.07 0.12 0.11 0.09 0.08 0.09 0.07 0.09 0.09 0.11 0.08 0.07 0.07 0.10 0.10 0.11 0.16 0.24 0.26 0.28 0.32 0.33 0.34 0.28 0.24 0.25 0.22 0.23 0.21 0.18 0.18
0.01 0.01 0.01 0.01 0.02 0.01 0.01 0.02 0.03 0.04 0.05 0.06 0.05 0.07 0.10 0.10 0.10 0.09 0.09 0.10 0.10 0.07 0.09 0.09 0.09 0.10 0.12 0.12 0.11 0.13 0.19 0.23 0.24 0.26 0.30 0.33 0.31 0.27 0.24 0.21 0.19 0.18 0.16 0.16
0.02 0.02 0.01 0.01 0.01 0.01 0.01 0.02 0.03 0.04 0.05 0.06 0.05 0.06 0.08 0.09 0.11 0.14 0.12 0.12 0.12 0.12 0.11 0.10 0.09 0.09 0.09 0.09 0.12 0.14 0.16 0.18 0.19 0.19 0.22 0.24 0.27 0.27 0.26 0.22 0.18 0.15 0.12 0.13
0.02 0.02 0.01 0.00 0.00 0.01 0.01 0.01 0.02 0.04 0.04 0.03 0.04 0.04 0.05 0.06 0.09 0.13 0.13 0.12 0.12 0.15 0.14 0.10 0.09 0.08 0.07 0.06 0.09 0.14 0.15 0.16 0.14 0.14 0.16 0.16 0.17 0.20 0.21 0.21 0.19 0.16 0.14 0.14
0.00 0.00 0.00 0.00 0.00 0.00 0.00 0.01 0.02 0.04 0.04 0.03 0.03 0.03 0.05 0.06 0.08 0.11 0.12 0.13 0.14 0.16 0.15 0.11 0.09 0.09 0.08 0.07 0.06 0.09 0.14 0.15 0.14 0.13 0.14 0.15 0.14 0.17 0.18 0.19 0.17 0.16 0.14 0.13
0.00 0.00 0.00 0.00 0.00 0.01 0.01 0.02 0.02 0.02 0.03 0.02 0.02 0.04 0.05 0.06 0.06 0.07 0.09 0.10 0.11 0.12 0.13 0.12 0.12 0.12 0.11 0.09 0.08 0.08 0.12 0.16 0.16 0.13 0.12 0.13 0.12 0.12 0.14 0.14 0.13 0.12 0.13 0.13
0.00 0.00 0.00 0.00 0.00 0.00 0.00 0.01 0.01 0.02 0.02 0.01 0.01 0.04 0.05 0.05 0.04 0.05 0.06 0.08 0.08 0.09 0.10 0.12 0.12 0.11 0.09 0.09 0.10 0.11 0.12 0.17 0.18 0.14 0.13 0.13 0.11 0.10 0.11 0.12 0.12 0.11 0.12 0.12
0.00 0.00 0.00 0.00 0.00 0.00 0.00 0.00 0.00 0.01 0.01 0.01 0.01 0.04 0.05 0.03 0.03 0.03 0.04 0.06 0.07 0.09 0.09 0.10 0.11 0.10 0.08 0.08 0.12 0.13 0.13 0.15 0.16 0.13 0.13 0.12 0.11 0.10 0.11 0.11 0.11 0.11 0.11 0.11
0.00 0.00 0.00 0.00 0.00 0.00 0.00 0.00 0.00 0.01 0.01 0.01 0.02 0.04 0.03 0.02 0.02 0.02 0.03 0.05 0.08 0.08 0.07 0.07 0.09 0.08 0.06 0.07 0.08 0.09 0.13 0.13 0.13 0.12 0.13 0.12 0.10 0.11 0.11 0.12 0.10 0.10 0.10 0.11
0.00 0.00 0.00 0.00 0.00 0.00 0.00 0.00 0.01 0.02 0.02 0.02 0.02 0.02 0.02 0.02 0.02 0.02 0.02 0.04 0.05 0.05 0.04 0.06 0.08 0.08 0.07 0.06 0.06 0.06 0.09 0.11 0.10 0.08 0.10 0.10 0.11 0.12 0.12 0.12 0.11 0.10 0.10 0.11
0.00 0.00 0.00 0.00 0.00 0.00 0.00 0.00 0.00 0.01 0.01 0.01 0.01 0.01 0.01 0.02 0.02 0.02 0.02 0.02 0.02 0.03 0.04 0.05 0.06 0.07 0.06 0.05 0.05 0.04 0.05 0.07 0.06 0.06 0.06 0.06 0.09 0.12 0.13 0.13 0.12 0.11 0.11 0.11
0.00 0.00 0.00 0.00 0.00 0.00 0.00 0.00 0.00 0.01 0.01 0.01 0.01 0.01 0.01 0.01 0.01 0.01 0.01 0.01 0.02 0.02 0.03 0.04 0.05 0.05 0.05 0.04 0.05 0.05 0.04 0.04 0.05 0.04 0.04 0.04 0.06 0.09 0.13 0.14 0.15 0.14 0.12 0.11
0.00 0.00 0.00 0.00 0.00 0.00 0.00 0.00 0.00 0.00 0.01 0.00 0.01 0.01 0.01 0.01 0.00 0.00 0.00 0.01 0.01 0.03 0.04 0.04 0.05 0.05 0.04 0.03 0.04 0.04 0.03 0.04 0.05 0.04 0.03 0.03 0.04 0.07 0.10 0.11 0.12 0.12 0.11 0.11
0.00 0.00 0.00 0.00 0.00 0.00 0.00 0.00 0.00 0.00 0.01 0.00 0.00 0.00 0.00 0.00 0.00 0.00 0.00 0.01 0.02 0.03 0.03 0.04 0.04 0.03 0.02 0.02 0.03 0.03 0.02 0.03 0.03 0.03 0.03 0.02 0.02 0.04 0.07 0.09 0.11 0.12 0.12 0.12
0.00 0.00 0.00 0.00 0.00 0.00 0.00 0.00 0.00 0.00 0.00 0.00 0.00 0.00 0.00 0.00 0.01 0.00 0.01 0.01 0.01 0.01 0.02 0.03 0.03 0.01 0.01 0.01 0.01 0.02 0.02 0.02 0.02 0.03 0.03 0.03 0.03 0.04 0.05 0.06 0.08 0.10 0.11 0.12
0.00 0.00 0.00 0.00 0.00 0.00 0.00 0.00 0.00 0.00 0.01 0.00 0.00 0.00 0.00 0.01 0.01 0.00 0.00 0.00 0.00 0.00 0.01 0.02 0.02 0.01 0.01 0.01 0.01 0.01 0.02 0.02 0.02 0.03 0.03 0.04 0.04 0.05 0.06 0.07 0.07 0.09 0.10 0.11
0.00 0.00 0.00 0.00 0.00 0.00 0.00 0.00 0.00 0.00 0.00 0.00 0.00 0.01 0.01 0.01 0.00 0.00 0.00 0.00 0.00 0.00 0.00 0.01 0.01 0.01 0.01 0.01 0.01 0.01 0.01 0.02 0.03 0.04 0.04 0.04 0.04 0.05 0.06 0.07 0.08 0.08 0.09 0.10
0.00 0.00 0.00 0.00 0.00 0.00 0.00 0.00 0.00 0.00 0.00 0.00 0.00 0.01 0.01 0.01 0.00 0.00 0.00 0.00 0.00 0.00 0.00 0.01 0.01 0.01 0.01 0.01 0.01 0.01 0.01 0.01 0.02 0.06 0.06 0.04 0.04 0.05 0.06 0.07 0.08 0.08 0.09 0.10
0.00 0.00 0.00 0.00 0.00 0.00 0.00 0.00 0.00 0.00 0.00 0.00 0.00 0.00 0.00 0.00 0.00 0.00 0.00 0.00 0.00 0.00 0.00 0.00 0.01 0.01 0.01 0.01 0.01 0.01 0.01 0.01 0.02 0.07 0.07 0.05 0.04 0.05 0.07 0.08 0.07 0.07 0.08 0.08
0.00 0.00 0.00 0.00 0.00 0.00 0.00 0.00 0.00 0.00 0.00 0.00 0.00 0.00 0.00 0.00 0.00 0.00 0.00 0.00 0.00 0.00 0.00 0.00 0.00 0.01 0.01 0.01 0.01 0.01 0.01 0.02 0.03 0.06 0.05 0.05 0.04 0.06 0.08 0.09 0.08 0.07 0.08 0.08
0.00 0.00 0.00 0.00 0.00 0.00 0.00 0.00 0.00 0.00 0.00 0.00 0.00 0.00 0.00 0.00 0.00 0.00 0.00 0.00 0.00 0.00 0.00 0.00 0.00 0.01 0.01 0.01 0.01 0.01 0.02 0.03 0.04 0.05 0.04 0.04 0.03 0.04 0.07 0.09 0.10 0.10 0.09 0.09
MSLP
1014.88 1015.04 1015.13 1015.13 1015.06 1014.91 1014.68 1014.34 1013.90 1013.33 1012.63 1011.81 1010.90 1009.94 1008.96 1008.02 1007.16 1006.41 1005.78 1005.29 1004.92 1004.65 1004.46 1004.34 1004.26 1004.22 1004.22 1004.28 1004.38 1004.56 1004.80 1005.10 1005.46 1005.87 1006.33 1006.82 1007.36 1007.93 1008.55 1009.23 1009.96 1010.74 1011.57 1012.44
1014.41 1014.49 1014.51 1014.49 1014.45 1014.38 1014.26 1014.08 1013.79 1013.36 1012.76 1012.01 1011.10 1010.09 1009.02 1007.97 1006.99 1006.13 1005.42 1004.86 1004.45 1004.16 1003.96 1003.82 1003.73 1003.67 1003.65 1003.68 1003.77 1003.93 1004.18 1004.52 1004.92 1005.38 1005.89 1006.43 1006.99 1007.59 1008.22 1008.90 1009.63 1010.41 1011.25 1012.13
1013.88 1013.89 1013.86 1013.84 1013.83 1013.85 1013.86 1013.82 1013.69 1013.40 1012.92 1012.24 1011.36 1010.33 1009.21 1008.07 1007.00 1006.05 1005.26 1004.64 1004.18 1003.85 1003.61 1003.43 1003.29 1003.18 1003.11 1003.09 1003.14 1003.28 1003.52 1003.86 1004.29 1004.78 1005.34 1005.92 1006.53 1007.17 1007.83 1008.53 1009.29 1010.09 1010.94 1011.83
1013.36 1013.31 1013.26 1013.23 1013.26 1013.34 1013.46 1013.56 1013.57 1013.42 1013.06 1012.47 1011.65 1010.64 1009.51 1008.35 1007.23 1006.22 1005.37 1004.69 1004.17 1003.78 1003.48 1003.23 1003.02 1002.84 1002.69 1002.59 1002.57 1002.66 1002.87 1003.19 1003.62 1004.14 1004.73 1005.36 1006.01 1006.70 1007.41 1008.15 1008.94 1009.77 1010.64 1011.54
1012.93 1012.84 1012.74 1012.70 1012.75 1012.89 1013.09 1013.28 1013.41 1013.39 1013.15 1012.67 1011.94 1011.01 1009.93 1008.79 1007.68 1006.66 1005.78 1005.05 1004.47 1004.01 1003.63 1003.30 1002.99 1002.70 1002.44 1002.25 1002.14 1002.16 1002.31 1002.60 1003.02 1003.54 1004.14 1004.80 1005.50 1006.22 1006.98 1007.77 1008.60 1009.46 1010.35 1011.26
1012.64 1012.50 1012.37 1012.30 1012.34 1012.49 1012.73 1012.99 1013.20 1013.28 1013.16 1012.81 1012.21 1011.40 1010.43 1009.38 1008.33 1007.35 1006.48 1005.73 1005.10 1004.57 1004.10 1003.65 1003.22 1002.82 1002.44 1002.13 1001.93 1001.85 1001.93 1002.17 1002.55 1003.06 1003.66 1004.33 1005.05 1005.81 1006.61 1007.43 1008.30 1009.19 1010.10 1011.01
1012.51 1012.33 1012.14 1012.03 1012.03 1012.16 1012.38 1012.67 1012.93 1013.09 1013.08 1012.87 1012.42 1011.78 1010.97 1010.06 1009.14 1008.25 1007.42 1006.69 1006.03 1005.43 1004.86 1004.30 1003.75 1003.21 1002.71 1002.28 1001.97 1001.80 1001.80 1001.97 1002.31 1002.78 1003.36 1004.03 1004.75 1005.53 1006.34 1007.19 1008.07 1008.98 1009.89 1010.80
1012.55 1012.32 1012.08 1011.90 1011.84 1011.90 1012.08 1012.34 1012.62 1012.83 1012.92 1012.85 1012.58 1012.12 1011.51 1010.80 1010.05 1009.28 1008.55 1007.85 1007.18 1006.53 1005.87 1005.21 1004.54 1003.88 1003.26 1002.72 1002.30 1002.04 1001.97 1002.07 1002.34 1002.77 1003.31 1003.95 1004.66 1005.42 1006.23 1007.07 1007.95 1008.85 1009.76 1010.66
1012.74 1012.47 1012.17 1011.91 1011.76 1011.73 1011.84 1012.05 1012.30 1012.55 1012.72 1012.77 1012.68 1012.43 1012.04 1011.55 1010.98 1010.38 1009.75 1009.11 1008.45 1007.77 1007.06 1006.31 1005.55 1004.79 1004.07 1003.44 1002.95 1002.61 1002.46 1002.50 1002.71 1003.07 1003.56 1004.15 1004.82 1005.54 1006.31 1007.12 1007.97 1008.84 1009.71 1010.58
1013.06 1012.74 1012.39 1012.06 1011.81 1011.69 1011.70 1011.84 1012.06 1012.31 1012.54 1012.70 1012.77 1012.71 1012.54 1012.26 1011.89 1011.45 1010.95 1010.39 1009.77 1009.09 1008.34 1007.55 1006.72 1005.90 1005.13 1004.45 1003.90 1003.51 1003.30 1003.28 1003.43 1003.72 1004.14 1004.66 1005.25 1005.91 1006.61 1007.36 1008.14 1008.94 1009.75 1010.56
1013.47 1013.14 1012.74 1012.35 1012.02 1011.81 1011.73 1011.79 1011.96 1012.20 1012.46 1012.71 1012.90 1013.01 1013.03 1012.94 1012.75 1012.47 1012.10 1011.63 1011.06 1010.41 1009.67 1008.87 1008.03 1007.20 1006.41 1005.71 1005.14 1004.73 1004.49 1004.41 1004.50 1004.72 1005.05 1005.48 1005.97 1006.53 1007.13 1007.77 1008.45 1009.15 1009.87 1010.58
1013.94 1013.61 1013.21 1012.78 1012.40 1012.12 1011.96 1011.95 1012.06 1012.28 1012.56 1012.86 1013.14 1013.37 1013.53 1013.60 1013.56 1013.42 1013.16 1012.78 1012.29 1011.69 1010.99 1010.23 1009.43 1008.63 1007.87 1007.20 1006.64 1006.22 1005.96 1005.84 1005.86 1006.00 1006.23 1006.55 1006.92 1007.35 1007.82 1008.33 1008.88 1009.45 1010.04 1010.65
1014.46 1014.16 1013.77 1013.35 1012.95 1012.62 1012.42 1012.34 1012.41 1012.59 1012.86 1013.18 1013.51 1013.82 1014.08 1014.26 1014.33 1014.30 1014.14 1013.85 1013.44 1012.92 1012.30 1011.61 1010.89 1010.16 1009.47 1008.86 1008.33 1007.93 1007.65 1007.49 1007.44 1007.48 1007.61 1007.79 1008.03 1008.31 1008.64 1009.00 1009.39 1009.81 1010.26 1010.73
1015.02 1014.77 1014.42 1014.03 1013.63 1013.30 1013.06 1012.95 1012.97 1013.12 1013.37 1013.68 1014.03 1014.38 1014.69 1014.93 1015.08 1015.12 1015.05 1014.85 1014.53 1014.10 1013.58 1012.99 1012.37 1011.75 1011.15 1010.60 1010.13 1009.74 1009.45 1009.25 1009.12 1009.06 1009.06 1009.11 1009.21 1009.34 1009.51 1009.71 1009.95 1010.22 1010.51 1010.83
1015.59 1015.41 1015.13 1014.78 1014.42 1014.10 1013.86 1013.72 1013.71 1013.82 1014.03 1014.33 1014.67 1015.02 1015.35 1015.63 1015.82 1015.92 1015.91 1015.78 1015.55 1015.22 1014.81 1014.34 1013.83 1013.32 1012.82 1012.35 1011.93 1011.55 1011.24 1010.98 1010.78 1010.61 1010.49 1010.40 1010.35 1010.34 1010.36 1010.42 1010.51 1010.64 1010.79 1010.98
1016.18 1016.06 1015.84 1015.55 1015.23 1014.94 1014.70 1014.56 1014.52 1014.60 1014.78 1015.05 1015.37 1015.71 1016.04 1016.33 1016.55 1016.68 1016.72 1016.66 1016.51 1016.28 1015.97 1015.61 1015.22 1014.81 1014.40 1013.99 1013.60 1013.23 1012.89 1012.57 1012.27 1012.00 1011.76 1011.55 1011.38 1011.24 1011.14 1011.08 1011.06 1011.07 1011.11 1011.18
1016.74 1016.68 1016.52 1016.28 1016.00 1015.73 1015.51 1015.36 1015.31 1015.37 1015.53 1015.77 1016.06 1016.39 1016.71 1017.00 1017.24 1017.40 1017.48 1017.48 1017.40 1017.25 1017.03 1016.77 1016.47 1016.14 1015.79 1015.43 1015.05 1014.67 1014.28 1013.89 1013.51 1013.14 1012.80 1012.49 1012.21 1011.98 1011.80 1011.66 1011.56 1011.50 1011.46 1011.45
1017.27 1017.24 1017.11 1016.91 1016.66 1016.40 1016.19 1016.04 1015.98 1016.03 1016.17 1016.40 1016.69 1017.01 1017.33 1017.63 1017.88 1018.07 1018.18 1018.22 1018.20 1018.10 1017.95 1017.76 1017.52 1017.24 1016.92 1016.57 1016.19 1015.78 1015.34 1014.88 1014.43 1013.98 1013.56 1013.17 1012.83 1012.55 1012.32 1012.15 1012.02 1011.92 1011.85 1011.79
1017.73 1017.71 1017.59 1017.39 1017.14 1016.90 1016.68 1016.53 1016.48 1016.53 1016.67 1016.90 1017.20 1017.53 1017.87 1018.18 1018.45 1018.66 1018.81 1018.88 1018.88 1018.82 1018.71 1018.55 1018.34 1018.07 1017.76 1017.40 1016.99 1016.54 1016.05 1015.54 1015.02 1014.51 1014.04 1013.61 1013.25 1012.95 1012.72 1012.54 1012.42 1012.32 1012.25 1012.18
1018.10 1018.05 1017.91 1017.69 1017.44 1017.19 1016.97 1016.83 1016.79 1016.86 1017.03 1017.29 1017.61 1017.97 1018.33 1018.67 1018.96 1019.19 1019.35 1019.44 1019.46 1019.41 1019.30 1019.14 1018.93 1018.65 1018.32 1017.93 1017.49 1016.99 1016.46 1015.90 1015.34 1014.80 1014.30 1013.86 1013.49 1013.20 1012.99 1012.85 1012.75 1012.68 1012.63 1012.58
1018.33 1018.24 1018.06 1017.82 1017.55 1017.30 1017.09 1016.97 1016.95 1017.05 1017.26 1017.57 1017.93 1018.33 1018.73 1019.10 1019.41 1019.66 1019.83 1019.91 1019.93 1019.87 1019.75 1019.56 1019.32 1019.02 1018.65 1018.23 1017.74 1017.21 1016.64 1016.05 1015.47 1014.92 1014.42 1013.98 1013.63 1013.37 1013.18 1013.07 1013.01 1012.98 1012.96 1012.94
1018.42 1018.28 1018.05 1017.78 1017.50 1017.25 1017.06 1016.98 1017.01 1017.17 1017.44 1017.80 1018.22 1018.66 1019.10 1019.50 1019.83 1020.08 1020.24 1020.32 1020.31 1020.23 1020.07 1019.85 1019.57 1019.23 1018.82 1018.36 1017.85 1017.29 1016.70 1016.11 1015.52 1014.97 1014.47 1014.06 1013.72 1013.48 1013.32 1013.23 1013.19 1013.18 1013.18 1013.18
1018.34 1018.14 1017.88 1017.59 1017.31 1017.09 1016.95 1016.93 1017.03 1017.26 1017.60 1018.02 1018.50 1018.99 1019.46 1019.87 1020.21 1020.46 1020.61 1020.66 1020.63 1020.51 1020.32 1020.06 1019.74 1019.36 1018.92 1018.43 1017.90 1017.33 1016.74 1016.15 1015.57 1015.03 1014.54 1014.14 1013.81 1013.57 1013.41 1013.32 1013.28 1013.27 1013.27 1013.28
1018.07 1017.82 1017.54 1017.26 1017.02 1016.85 1016.79 1016.85 1017.05 1017.36 1017.78 1018.27 1018.80 1019.32 1019.82 1020.24 1020.57 1020.81 1020.94 1020.96 1020.90 1020.74 1020.51 1020.22 1019.87 1019.46 1019.01 1018.51 1017.97 1017.41 1016.82 1016.24 1015.68 1015.15 1014.67 1014.26 1013.93 1013.67 1013.48 1013.35 1013.28 1013.24 1013.22 1013.21
1017.62 1017.34 1017.06 1016.82 1016.64 1016.56 1016.60 1016.78 1017.08 1017.49 1017.98 1018.54 1019.11 1019.66 1020.15 1020.57 1020.89 1021.10 1021.21 1021.21 1021.11 1020.94 1020.68 1020.37 1020.00 1019.59 1019.13 1018.63 1018.10 1017.55 1016.99 1016.43 1015.88 1015.36 1014.89 1014.46 1014.10 1013.79 1013.55 1013.36 1013.22 1013.11 1013.04 1012.99
1016.99 1016.70 1016.45 1016.27 1016.19 1016.23 1016.39 1016.69 1017.11 1017.62 1018.19 1018.79 1019.39 1019.95 1020.44 1020.84 1021.14 1021.33 1021.41 1021.39 1021.28 1021.09 1020.84 1020.52 1020.16 1019.75 1019.30 1018.82 1018.31 1017.79 1017.25 1016.71 1016.18 1015.67 1015.18 1014.74 1014.33 1013.97 1013.65 1013.37 1013.14 1012.94 1012.78 1012.67
Thickness
5521 5510 5505 5508 5512 5515 5513 5510 5510 5517 5524 5523 5523 5530 5539 5545 5547 5549 5552 5557 5562 5569 5575 5581 5585 5590 5596 5602 5609 5615 5621 5626 5630 5633 5637 5643 5648 5653 5656 5659 5661 5664 5665 5666
5510 5507 5516 5518 5517 5516 5513 5509 5507 5515 5522 5524 5522 5528 5536 5540 5544 5548 5550 5553 5557 5562 5568 5574 5578 5583 5588 5594 5601 5608 5615 5620 5625 5629 5632 5638 5643 5647 5651 5654 5655 5658 5660 5661
5511 5517 5523 5520 5515 5513 5512 5508 5508 5511 5517 5521 5521 5523 5529 5537 5541 5545 5547 5550 5553 5558 5563 5567 5572 5576 5581 5587 5595 5602 5608 5613 5619 5623 5625 5630 5633 5637 5640 5643 5648 5652 5655 5656
5514 5520 5521 5518 5516 5514 5509 5517 5516 5515 5508 5507 5515 5511 5525 5531 5537 5540 5541 5544 5548 5553 5557 5561 5566 5571 5576 5582 5589 5594 5600 5605 5611 5615 5618 5623 5627 5631 5635 5638 5642 5645 5648 5650
5513 5520 5519 5516 5518 5517 5513 5519 5516 5514 5508 5505 5510 5508 5517 5525 5530 5534 5536 5540 5544 5548 5552 5557 5562 5567 5572 5577 5582 5588 5594 5598 5603 5607 5611 5615 5620 5624 5628 5631 5633 5637 5640 5643
5515 5521 5520 5518 5520 5519 5518 5514 5513 5507 5503 5503 5511 5508 5509 5515 5522 5527 5532 5536 5540 5544 5547 5552 5557 5563 5567 5571 5576 5581 5587 5591 5595 5599 5603 5607 5611 5616 5619 5622 5625 5629 5632 5635
5510 5516 5519 5520 5515 5515 5511 5501 5493 5496 5493 5503 5512 5508 5509 5516 5521 5524 5527 5529 5534 5537 5541 5545 5551 5556 5561 5565 5571 5576 5580 5583 5587 5591 5595 5599 5603 5607 5611 5615 5617 5620 5623 5626
5500 5500 5514 5517 5514 5510 5508 5503 5494 5495 5496 5502 5509 5506 5508 5517 5520 5522 5524 5525 5529 5532 5535 5540 5545 5550 5555 5559 5564 5568 5572 5576 5579 5583 5587 5592 5595 5599 5602 5607 5610 5613 5616 5619
5499 5502 5515 5518 5518 5515 5509 5501 5504 5493 5492 5494 5502 5506 5512 5517 5516 5518 5519 5521 5524 5527 5530 5534 5539 5543 5548 5552 5556 5559 5564 5567 5570 5574 5580 5585 5588 5591 5595 5599 5602 5605 5608 5610
5505 5501 5509 5515 5517 5514 5511 5507 5498 5494 5496 5500 5502 5502 5506 5509 5510 5513 5515 5517 5520 5523 5525 5529 5533 5537 5540 5544 5549 5552 5555 5558 5562 5567 5572 5578 5581 5584 5587 5590 5593 5596 5598 5601
5505 5498 5502 5508 5508 5507 5508 5507 5501 5493 5495 5493 5494 5503 5512 5508 5508 5509 5511 5513 5515 5518 5520 5523 5526 5530 5533 5537 5542 5545 5548 5552 5556 5560 5564 5569 5572 5576 5579 5582 5585 5588 5590 5592
5504 5493 5491 5502 5510 5513 5510 5507 5501 5497 5492 5486 5485 5498 5514 5509 5508 5508 5509 5510 5512 5513 5515 5518 5520 5523 5526 5529 5533 5536 5540 5545 5548 5552 5556 5559 5562 5565 5569 5573 5576 5580 5582 5584
5506 5494 5488 5497 5502 5507 5508 5510 5507 5499 5488 5480 5483 5497 5510 5508 5507 5507 5506 5505 5506 5508 5511 5512 5514 5516 5518 5521 5524 5527 5531 5536 5540 5544 5548 5550 5553 5556 5559 5563 5568 5571 5574 5576
5507 5494 5491 5500 5502 5503 5504 5508 5506 5496 5485 5484 5488 5496 5505 5505 5504 5504 5502 5501 5501 5503 5505 5505 5506 5508 5510 5513 5516 5519 5523 5527 5533 5536 5539 5541 5544 5547 5550 5554 5558 5562 5565 5568
5502 5494 5498 5500 5506 5506 5507 5508 5506 5500 5497 5493 5497 5497 5504 5502 5501 5500 5499 5499 5499 5499 5499 5499 5500 5501 5504 5507 5510 5513 5515 5519 5523 5526 5529 5531 5534 5537 5540 5544 5548 5552 5555 5557
5496 5494 5497 5499 5507 5507 5508 5511 5509 5507 5505 5502 5502 5503 5506 5503 5500 5498 5496 5496 5495 5494 5495 5495 5495 5496 5497 5499 5502 5504 5506 5509 5513 5516 5518 5521 5524 5527 5530 5534 5537 5541 5544 5546
5490 5491 5492 5492 5500 5506 5506 5513 5512 5510 5509 5507 5505 5507 5506 5503 5500 5495 5493 5493 5491 5490 5490 5490 5490 5490 5492 5493 5495 5496 5498 5501 5504 5506 5508 5510 5514 5517 5520 5523 5527 5530 5532 5534
5491 5489 5485 5487 5495 5505 5520 5523 5520 5516 5516 5513 5512 5508 5505 5503 5498 5494 5491 5488 5487 5486 5486 5485 5484 5485 5486 5487 5488 5488 5490 5491 5493 5494 5495 5498 5501 5504 5507 5510 5513 5516 5519 5521
5493 5492 5486 5484 5486 5500 5519 5523 5521 5516 5515 5515 5510 5507 5503 5499 5493 5489 5489 5486 5484 5483 5481 5479 5478 5478 5478 5479 5479 5480 5480 5479 5481 5482 5483 5485 5488 5491 5494 5497 5500 5502 5505 5508
5489 5486 5481 5482 5492 5505 5527 5524 5522 5518 5513 5517 5511 5505 5500 5496 5489 5489 5488 5484 5481 5479 5477 5474 5472 5471 5471 5470 5470 5470 5469 5469 5469 5470 5471 5473 5475 5478 5481 5484 5487 5489 5492 5495
5486 5483 5479 5480 5485 5501 5519 5519 5520 5511 5520 5519 5512 5506 5499 5494 5492 5488 5485 5481 5478 5476 5473 5471 5468 5465 5464 5463 5462 5461 5460 5458 5458 5459 5461 5462 5464 5466 5469 5472 5474 5477 5480 5482
5483 5480 5481 5480 5484 5505 5520 5516 5514 5518 5518 5514 5509 5505 5498 5493 5489 5485 5481 5477 5474 5471 5469 5467 5463 5460 5459 5457 5455 5453 5451 5450 5449 5449 5450 5451 5453 5455 5458 5459 5462 5464 5467 5468
5485 5491 5491 5496 5511 5519 5516 5518 5520 5515 5512 5509 5505 5502 5497 5490 5485 5482 5478 5474 5471 5469 5465 5462 5458 5455 5452 5450 5447 5445 5443 5442 5441 5441 5441 5441 5443 5444 5446 5448 5449 5451 5453 5454
5491 5494 5493 5497 5509 5514 5515 5515 5515 5512 5510 5508 5503 5498 5493 5488 5483 5479 5474 5470 5467 5464 5461 5457 5453 5450 5447 5444 5441 5437 5435 5433 5431 5431 5431 5432 5432 5433 5434 5436 5437 5438 5439 5440
5495 5493 5492 5498 5508 5511 5515 5514 5512 5509 5506 5502 5498 5494 5489 5484 5480 5475 5470 5466 5463 5460 5456 5452 5448 5444 5441 5437 5433 5430 5427 5425 5423 5422 5422 5421 5421 5421 5421 5423 5424 5425 5425 5427
5493 5496 5497 5508 5513 5510 5515 5516 5511 5505 5502 5498 5493 5489 5484 5480 5475 5471 5466 5462 5457 5453 5449 5446 5442 5438 5433 5429 5426 5422 5420 5417 5415 5413 5412 5412 5410 5410 5410 5411 5412 5413 5413 5415